Wind_Speed
21 21 20 20 20 20 19 18 18 18 18 17 17 15 15 15 14 14 13 13 12 12 12 11 10 10 9 8 7 6 5 5 5 4 4 4 3 3 3 3 3 3 3
21 22 21 22 22 22 21 20 20 19 19 18 18 17 16 16 16 15 15 15 14 14 13 13 12 11 10 10 9 8 7 7 6 6 5 5 5 4 4 4 4 4 4
23 23 23 23 24 24 24 23 22 21 20 20 19 18 18 18 17 17 17 16 16 16 15 14 14 13 12 11 10 10 9 8 8 7 7 6 6 6 6 5 5 5 5
25 25 24 24 25 25 25 25 24 23 22 21 21 20 20 19 19 19 19 18 18 17 16 16 15 15 14 13 13 11 11 10 10 9 8 8 8 8 7 7 7 6 6
26 26 27 26 26 26 26 26 25 25 25 23 22 22 22 22 21 21 20 20 20 19 18 17 17 16 16 15 15 14 13 12 11 11 10 10 10 10 9 9 8 7 7
28 28 28 28 28 28 28 28 27 26 26 26 25 24 24 24 23 22 22 21 21 21 20 19 19 18 18 17 17 16 14 14 13 13 12 12 12 11 11 11 10 9 9
29 30 29 29 30 29 30 29 29 28 28 27 27 27 26 26 25 25 24 23 23 23 22 21 20 20 20 19 18 17 16 16 15 15 14 14 13 13 12 12 12 12 11
32 31 31 31 31 31 30 31 30 30 30 29 29 28 28 29 28 27 26 25 24 23 23 23 22 22 21 20 19 18 18 17 17 17 17 16 15 14 13 13 13 13 13
33 33 33 33 33 33 32 32 32 32 32 31 31 30 29 29 30 30 29 28 26 25 24 24 24 23 23 22 21 20 19 18 18 18 18 17 16 16 16 16 15 14 15
34 35 35 35 35 35 35 35 34 33 33 33 33 32 31 30 31 31 30 29 28 28 27 26 25 25 25 24 23 22 21 20 20 20 19 19 18 18 18 18 17 16 16
35 36 36 36 36 36 36 36 36 36 35 35 35 34 33 32 31 32 31 30 29 29 28 28 27 26 26 26 26 24 23 23 22 22 21 21 20 20 20 19 19 18 18
37 37 37 37 38 38 38 37 37 37 37 37 36 36 35 34 33 33 32 31 31 30 30 30 29 28 28 28 28 26 26 25 24 24 23 23 22 22 21 21 20 20 20
38 38 38 38 38 38 39 39 39 38 38 38 37 37 36 36 35 35 34 34 33 32 31 31 31 30 29 29 29 28 28 27 26 26 25 25 24 24 23 22 22 22 21
38 39 40 40 40 40 40 40 40 40 39 38 38 38 37 37 37 36 36 35 35 34 33 32 32 32 31 30 30 30 30 29 28 28 27 27 26 26 26 25 24 24 23
38 38 39 40 41 41 41 41 40 40 40 40 39 39 39 38 38 37 37 37 36 35 35 34 34 33 32 32 32 31 31 31 30 30 29 29 28 28 28 28 27 26 26
38 38 38 39 41 41 41 41 41 41 41 41 41 40 40 41 39 38 38 39 38 37 36 35 35 35 34 33 34 33 33 32 32 32 32 31 30 30 30 29 29 29 28
37 38 38 39 40 41 41 42 42 42 42 42 42 42 42 42 42 40 40 40 40 39 38 37 36 35 35 35 35 35 35 35 34 34 34 33 32 32 31 31 30 31 31
36 37 37 38 39 40 41 42 44 44 43 43 43 43 43 43 43 43 42 41 41 40 40 39 39 38 37 36 36 36 36 36 36 36 35 35 34 34 34 33 33 33 33
36 36 36 37 38 39 40 42 44 44 44 44 44 44 44 44 44 44 44 44 42 42 41 41 41 40 40 39 38 38 39 38 38 38 37 37 36 36 36 35 35 35 35
36 37 36 37 38 39 39 41 43 44 45 45 45 45 45 44 45 46 46 46 45 44 43 43 42 42 42 42 41 41 41 41 41 40 39 39 38 38 38 38 37 38 38
36 37 38 38 38 39 39 40 42 43 45 45 45 46 46 46 46 47 47 47 47 47 46 45 44 44 43 44 44 43 43 43 43 43 42 41 40 40 40 40 39 39 39
36 36 37 38 39 40 40 40 42 44 45 45 45 46 46 47 48 49 49 49 49 48 48 47 46 46 45 46 46 46 45 45 45 45 44 43 42 42 42 42 41 41 41
36 37 38 39 39 40 41 41 43 45 45 45 45 46 47 48 48 49 50 50 50 50 50 49 49 48 47 48 48 48 47 47 46 46 46 45 45 44 43 43 43 42 42
36 37 39 40 41 42 43 43 44 44 44 45 46 47 47 48 49 50 51 51 52 52 52 52 51 51 50 50 50 50 50 50 50 48 47 46 46 46 46 45 45 45 44
35 37 39 40 40 42 43 43 44 45 46 46 47 47 48 48 49 50 52 52 52 52 53 53 53 53 52 52 52 51 51 51 52 51 49 48 48 48 48 47 47 46 46
35 36 38 39 39 41 42 43 44 45 46 47 48 48 48 49 49 50 52 53 54 54 54 54 54 54 54 54 54 54 52 52 52 52 51 50 50 49 49 49 48 47 47
Wind_Direction
241 242 242 240 238 238 239 240 238 238 237 236 234 233 233 233 233 232 232 233 234 235 237 239 242 243 243 244 244 246 245 246 255 251 249 244 236 241 241 249 247 247 255
243 241 241 241 239 238 238 239 240 239 238 235 234 234 232 232 234 234 235 236 237 238 239 241 243 244 244 243 242 245 247 246 255 250 249 243 245 249 248 251 253 251 254
245 243 242 241 240 239 238 239 241 239 238 236 235 235 234 233 234 236 238 239 239 240 242 244 244 244 243 242 242 245 248 247 250 248 250 252 251 249 252 257 260 264 266
247 246 244 242 241 240 239 239 240 239 238 237 236 237 236 236 237 238 240 241 241 241 243 245 244 242 242 242 243 245 247 245 248 248 249 250 249 251 254 256 260 267 266
248 248 246 244 242 241 240 240 241 242 240 240 238 237 238 238 239 239 240 241 240 241 242 244 244 241 242 244 245 246 247 245 246 246 247 249 250 253 256 256 256 259 263
248 247 246 245 244 243 242 242 242 243 244 242 241 239 239 240 241 240 240 240 241 241 242 243 243 242 242 244 245 247 248 247 246 247 248 252 254 255 256 255 257 259 263
250 248 247 246 245 245 244 244 244 244 244 243 243 243 242 242 243 243 242 243 242 242 242 243 244 242 242 244 245 246 247 247 247 247 249 251 252 254 256 256 258 259 261
250 249 248 247 246 247 246 246 246 246 245 245 245 245 245 244 245 244 243 244 245 244 243 243 244 244 244 244 246 246 246 246 249 249 250 251 253 254 255 255 257 259 261
251 250 249 248 247 247 246 246 247 247 247 247 247 247 247 246 246 245 244 245 246 246 244 244 244 245 244 245 246 246 246 247 250 250 250 252 253 255 255 255 257 259 261
251 250 249 248 247 247 247 247 247 247 248 249 248 248 248 248 247 246 246 246 247 248 247 246 247 246 246 245 247 248 247 247 249 252 251 252 253 255 256 256 257 259 262
252 250 249 249 247 247 247 247 247 247 248 248 248 248 248 248 248 248 248 248 248 248 248 248 248 248 247 246 247 249 248 247 250 252 252 253 254 255 255 256 258 260 262
253 251 250 249 248 247 247 248 247 247 248 249 248 248 248 248 249 248 248 249 249 250 250 249 249 250 249 248 248 249 248 248 250 252 252 254 255 256 255 255 258 260 261
254 252 251 250 248 248 247 247 247 247 248 248 248 248 248 248 248 248 248 248 248 249 251 251 250 251 251 250 248 248 248 248 250 252 253 254 255 255 256 257 257 260 260
255 252 250 249 248 248 248 248 248 247 247 248 248 248 248 248 248 248 249 249 249 250 251 252 251 251 252 252 250 249 248 247 249 251 253 254 255 256 257 260 260 261 261
257 254 252 251 249 248 248 248 248 248 247 247 248 248 248 248 248 248 249 249 250 251 251 252 253 252 253 253 252 251 248 248 248 251 253 254 255 256 258 259 261 263 262
257 255 253 252 250 249 247 247 248 248 248 247 248 249 249 248 248 248 249 250 250 250 251 252 253 253 253 252 251 251 250 250 250 252 253 254 255 256 257 259 261 263 263
258 256 254 253 250 248 247 248 248 248 248 248 248 249 250 250 248 248 249 250 250 250 250 251 252 252 251 250 251 251 251 251 251 253 254 255 255 256 257 259 261 263 264
260 257 254 252 250 249 249 248 248 248 248 248 248 249 249 250 250 250 250 250 249 248 249 250 251 252 252 250 250 251 252 251 252 253 254 255 255 256 258 260 262 264 264
262 258 255 253 251 251 251 250 248 248 248 248 247 247 249 249 250 251 251 250 249 249 250 251 251 253 253 252 252 252 252 252 253 254 255 256 257 258 259 261 263 264 264
263 259 257 255 253 252 253 252 250 249 249 249 248 247 248 249 249 250 251 251 251 251 251 251 252 254 253 253 253 253 252 253 254 254 255 256 258 258 260 261 263 265 265
265 261 258 255 254 254 255 253 251 250 250 250 250 249 248 249 249 250 251 251 251 251 251 251 252 254 254 253 253 253 253 254 255 255 256 257 258 259 260 262 264 265 265
265 262 260 256 254 254 255 255 254 252 252 252 252 251 251 251 250 251 251 252 252 252 252 252 252 254 252 252 253 253 255 255 256 257 257 257 260 261 262 263 263 264 265
267 264 262 257 256 256 256 255 254 253 252 252 253 253 253 254 253 253 252 252 252 252 253 253 253 254 254 254 254 255 256 256 256 257 258 259 260 261 263 263 264 265 265
270 266 263 259 258 258 257 257 255 255 254 254 254 253 254 255 255 254 254 254 253 253 253 253 254 255 256 256 257 257 258 258 258 257 258 259 261 262 263 264 265 265 265
271 268 264 261 258 257 256 256 255 255 255 254 254 254 255 256 256 255 255 255 255 255 254 255 255 256 257 257 258 258 258 259 260 260 259 259 261 262 264 264 266 266 265
273 270 266 261 260 258 257 255 255 255 255 255 254 254 255 255 255 256 255 254 254 255 255 255 256 257 257 257 258 258 258 259 260 260 260 260 260 262 264 265 265 265 266
Height
5825 5826 5828 5830 5831 5833 5834 5836 5837 5838 5839 5840 5842 5843 5844 5845 5846 5847 5848 5849 5850 5851 5852 5852 5853 5854 5854 5855 5855 5856 5856 5857 5857 5857 5858 5858 5858 5858 5859 5859 5859 5859 5859
5822 5823 5824 5826 5828 5830 5831 5833 5834 5835 5836 5838 5839 5840 5841 5843 5844 5845 5846 5847 5848 5849 5850 5851 5851 5852 5853 5853 5854 5855 5855 5855 5856 5856 5857 5857 5857 5858 5858 5858 5858 5859 5859
5818 5819 5821 5823 5824 5826 5828 5829 5830 5832 5833 5835 5836 5837 5838 5839 5841 5842 5843 5844 5845 5846 5847 5848 5849 5850 5851 5852 5852 5853 5853 5854 5855 5855 5855 5856 5856 5856 5857 5857 5857 5858 5858
5814 5815 5817 5818 5820 5822 5823 5825 5826 5828 5830 5831 5832 5834 5835 5836 5838 5839 5840 5841 5842 5843 5845 5846 5847 5848 5849 5849 5850 5851 5851 5852 5853 5853 5854 5854 5855 5855 5855 5856 5856 5856 5857
5809 5811 5813 5814 5816 5817 5819 5821 5822 5824 5825 5827 5828 5830 5831 5833 5834 5836 5837 5838 5839 5840 5841 5843 5844 5845 5846 5847 5848 5848 5849 5850 5851 5851 5852 5853 5853 5853 5854 5854 5854 5855 5855
5804 5806 5808 5809 5811 5813 5814 5816 5818 5819 5821 5823 5824 5825 5827 5828 5830 5831 5833 5834 5836 5837 5838 5839 5841 5842 5843 5844 5845 5846 5847 5848 5848 5849 5850 5850 5851 5851 5852 5852 5852 5853 5853
5799 5801 5802 5804 5806 5808 5809 5811 5813 5814 5816 5818 5820 5821 5823 5824 5826 5827 5829 5830 5832 5833 5834 5835 5837 5838 5840 5841 5842 5843 5844 5845 5845 5846 5847 5848 5848 5849 5849 5849 5850 5850 5851
5793 5794 5796 5798 5800 5802 5804 5806 5807 5809 5811 5813 5815 5816 5818 5819 5821 5823 5824 5826 5827 5829 5830 5831 5833 5834 5836 5837 5838 5839 5840 5842 5842 5843 5844 5844 5845 5846 5846 5846 5847 5848 5848
5786 5788 5790 5792 5794 5796 5798 5800 5802 5803 5805 5807 5809 5811 5813 5815 5816 5818 5819 5821 5823 5824 5826 5827 5829 5830 5831 5833 5834 5835 5837 5838 5839 5839 5840 5841 5842 5842 5843 5843 5844 5845 5845
5779 5780 5782 5785 5787 5789 5791 5794 5796 5797 5799 5801 5804 5805 5807 5809 5811 5813 5814 5816 5818 5820 5821 5823 5824 5826 5827 5828 5830 5831 5832 5834 5835 5836 5837 5838 5838 5839 5839 5840 5841 5841 5842
5771 5773 5775 5777 5779 5782 5784 5787 5789 5791 5793 5795 5797 5799 5801 5803 5805 5807 5809 5811 5813 5814 5816 5817 5819 5821 5822 5824 5825 5826 5828 5829 5830 5831 5833 5834 5834 5835 5835 5836 5837 5837 5838
5763 5765 5767 5769 5772 5774 5777 5779 5781 5784 5786 5788 5791 5793 5795 5797 5799 5801 5803 5805 5807 5809 5810 5812 5814 5815 5817 5818 5820 5821 5823 5824 5825 5827 5828 5829 5830 5830 5831 5832 5832 5833 5834
5754 5757 5759 5761 5763 5766 5769 5771 5774 5776 5779 5781 5783 5786 5788 5790 5793 5795 5797 5799 5800 5802 5804 5806 5808 5809 5811 5812 5814 5816 5817 5819 5820 5821 5823 5824 5824 5825 5826 5827 5828 5828 5829
5745 5747 5750 5752 5755 5757 5760 5763 5765 5768 5771 5773 5776 5778 5781 5783 5786 5788 5790 5792 5794 5796 5798 5800 5801 5803 5805 5806 5808 5810 5811 5813 5814 5816 5817 5818 5819 5820 5821 5822 5822 5823 5824
5736 5738 5740 5742 5745 5748 5751 5754 5757 5760 5762 5765 5768 5770 5773 5775 5778 5780 5782 5785 5787 5789 5791 5793 5794 5796 5798 5800 5801 5803 5805 5807 5808 5810 5811 5812 5813 5814 5815 5816 5817 5817 5818
5727 5729 5731 5733 5736 5738 5742 5745 5748 5751 5754 5756 5759 5762 5764 5767 5770 5772 5775 5777 5779 5781 5783 5785 5787 5789 5791 5792 5794 5796 5798 5800 5801 5803 5805 5806 5807 5808 5809 5810 5810 5811 5812
5717 5719 5721 5724 5726 5729 5732 5735 5738 5741 5744 5747 5750 5753 5755 5758 5761 5763 5766 5769 5771 5773 5775 5777 5779 5781 5783 5785 5787 5789 5791 5793 5794 5796 5797 5799 5800 5801 5802 5803 5804 5805 5806
5708 5709 5712 5714 5716 5719 5722 5725 5728 5731 5734 5737 5740 5743 5746 5749 5751 5754 5757 5760 5762 5764 5766 5768 5771 5772 5774 5776 5779 5781 5782 5785 5787 5788 5790 5791 5792 5793 5795 5796 5797 5798 5798
5699 5701 5703 5705 5707 5709 5712 5715 5718 5721 5724 5727 5730 5733 5736 5739 5741 5744 5747 5750 5753 5755 5757 5759 5762 5764 5766 5768 5770 5772 5774 5776 5778 5780 5781 5783 5784 5785 5787 5788 5789 5790 5790
5690 5692 5694 5695 5698 5700 5703 5706 5709 5711 5714 5717 5720 5723 5725 5728 5731 5734 5737 5740 5743 5745 5748 5750 5752 5754 5756 5759 5761 5763 5765 5767 5769 5771 5772 5774 5775 5777 5778 5779 5780 5781 5782
5682 5683 5684 5686 5688 5691 5693 5696 5698 5701 5704 5706 5709 5712 5715 5718 5721 5723 5726 5729 5732 5735 5737 5740 5742 5745 5746 5749 5751 5753 5755 5757 5760 5761 5763 5765 5766 5768 5769 5770 5771 5772 5773
5673 5674 5675 5677 5678 5681 5683 5686 5688 5690 5693 5695 5698 5701 5703 5706 5709 5712 5715 5718 5721 5724 5726 5729 5732 5734 5736 5738 5741 5742 5745 5747 5749 5751 5753 5755 5756 5758 5759 5760 5761 5762 5763
5663 5664 5665 5667 5668 5670 5673 5675 5677 5679 5682 5684 5687 5689 5692 5694 5697 5700 5703 5706 5709 5712 5715 5717 5720 5723 5725 5727 5729 5731 5734 5736 5738 5740 5742 5744 5746 5747 5748 5749 5750 5751 5752
5654 5654 5655 5657 5658 5660 5662 5664 5666 5668 5671 5674 5676 5678 5680 5682 5685 5687 5690 5693 5696 5699 5702 5705 5708 5710 5713 5715 5717 5719 5722 5725 5727 5729 5732 5733 5734 5736 5737 5738 5739 5739 5740
5644 5644 5645 5646 5647 5649 5650 5653 5655 5657 5659 5662 5664 5666 5668 5670 5672 5675 5678 5680 5683 5686 5689 5692 5695 5697 5700 5703 5704 5707 5709 5711 5714 5717 5720 5722 5723 5724 5725 5726 5727 5728 5728
5634 5634 5635 5636 5637 5638 5639 5641 5643 5645 5647 5649 5651 5653 5656 5658 5660 5662 5664 5667 5670 5673 5676 5679 5681 5684 5687 5689 5691 5693 5696 5698 5701 5703 5706 5709 5711 5712 5713 5714 5715 5716 5716